TimeEDT,TemperatureF,Dew PointF,Humidity,Sea Level PressureIn,VisibilityMPH,Wind Direction,Wind SpeedMPH,Gust SpeedMPH,PrecipitationIn,Events,Conditions,WindDirDegrees,DateUTC
12:53 AM,64.9,61.0,87,29.98,10.0,Calm,Calm,-,N/A,,Clear,0,2013-10-17 04:53:00
1:53 AM,64.0,61.0,90,29.98,9.0,Calm,Calm,-,N/A,,Partly Cloudy,0,2013-10-17 05:53:00
2:53 AM,62.1,60.1,93,29.96,5.0,Calm,Calm,-,N/A,,Clear,0,2013-10-17 06:53:00
3:24 AM,62.6,60.8,94,29.96,1.8,Calm,Calm,-,N/A,,Clear,0,2013-10-17 07:24:00
3:35 AM,60.8,60.8,100,29.96,3.0,Calm,Calm,-,N/A,,Clear,0,2013-10-17 07:35:00
3:51 AM,60.8,59.0,94,29.96,1.8,Calm,Calm,-,N/A,,Clear,0,2013-10-17 07:51:00
3:53 AM,61.0,59.0,93,29.95,1.8,Calm,Calm,-,N/A,,Clear,0,2013-10-17 07:53:00
4:10 AM,60.8,57.2,88,29.96,3.0,Calm,Calm,-,N/A,,Clear,0,2013-10-17 08:10:00
4:25 AM,60.8,59.0,94,29.96,2.0,Calm,Calm,-,N/A,,Partly Cloudy,0,2013-10-17 08:25:00
4:28 AM,60.8,59.0,94,29.97,1.5,Calm,Calm,-,N/A,,Scattered Clouds,0,2013-10-17 08:28:00
4:34 AM,60.8,59.0,94,29.97,1.8,Calm,Calm,-,N/A,,Mostly Cloudy,0,2013-10-17 08:34:00
4:36 AM,62.6,60.8,94,29.97,3.0,Calm,Calm,-,N/A,,Mostly Cloudy,0,2013-10-17 08:36:00
4:44 AM,62.6,60.8,94,29.97,1.2,Calm,Calm,-,N/A,,Mostly Cloudy,0,2013-10-17 08:44:00
4:51 AM,62.6,60.8,94,29.97,0.2,Calm,Calm,-,N/A,Fog,Fog,0,2013-10-17 08:51:00
4:53 AM,62.1,60.1,93,29.96,0.2,Calm,Calm,-,N/A,Fog,Fog,0,2013-10-17 08:53:00
5:53 AM,62.1,61.0,96,29.96,0.2,Calm,Calm,-,N/A,Fog,Fog,0,2013-10-17 09:53:00
6:53 AM,62.1,61.0,96,29.98,0.5,Calm,Calm,-,N/A,Fog,Fog,0,2013-10-17 10:53:00
7:53 AM,62.1,61.0,96,29.98,0.2,Calm,Calm,-,N/A,Fog,Fog,0,2013-10-17 11:53:00
8:53 AM,63.0,62.1,97,29.99,0.2,Calm,Calm,-,N/A,Fog,Fog,0,2013-10-17 12:53:00
9:25 AM,64.4,62.6,94,30.00,1.8,SW,4.6,-,N/A,,Overcast,230,2013-10-17 13:25:00
9:30 AM,64.4,62.6,94,30.00,3.0,SW,4.6,-,N/A,,Overcast,230,2013-10-17 13:30:00
9:53 AM,66.0,64.0,93,29.99,7.0,South,5.8,-,N/A,,Overcast,190,2013-10-17 13:53:00
10:16 AM,68.0,64.4,88,30.00,10.0,SSW,6.9,-,N/A,,Partly Cloudy,210,2013-10-17 14:16:00
10:53 AM,73.9,63.0,68,29.99,10.0,SW,10.4,-,N/A,,Clear,220,2013-10-17 14:53:00
11:53 AM,77.0,63.0,62,29.98,10.0,SSW,9.2,-,N/A,,Clear,210,2013-10-17 15:53:00
12:53 PM,80.1,62.1,54,29.95,10.0,SW,11.5,-,N/A,,Partly Cloudy,220,2013-10-17 16:53:00
1:53 PM,82.0,61.0,49,29.92,10.0,SW,11.5,-,N/A,,Mostly Cloudy,220,2013-10-17 17:53:00
2:53 PM,81.0,60.1,49,29.90,10.0,SSW,11.5,-,N/A,,Scattered Clouds,210,2013-10-17 18:53:00
3:53 PM,81.0,61.0,50,29.89,10.0,SSW,3.5,-,N/A,,Overcast,200,2013-10-17 19:53:00
4:53 PM,82.0,62.1,51,29.88,10.0,SW,8.1,-,N/A,,Overcast,230,2013-10-17 20:53:00
5:53 PM,80.1,63.0,56,29.88,10.0,South,4.6,-,N/A,,Mostly Cloudy,190,2013-10-17 21:53:00
6:53 PM,75.9,64.0,67,29.89,10.0,SW,3.5,-,N/A,,Scattered Clouds,230,2013-10-17 22:53:00
7:53 PM,75.0,64.9,71,29.90,10.0,Calm,Calm,-,N/A,,Overcast,0,2013-10-17 23:53:00
8:53 PM,72.0,64.9,78,29.91,10.0,Calm,Calm,-,N/A,,Mostly Cloudy,0,2013-10-18 00:53:00
9:53 PM,73.0,64.0,73,29.92,10.0,Calm,Calm,-,N/A,,Overcast,0,2013-10-18 01:53:00
10:53 PM,72.0,64.9,78,29.92,10.0,Calm,Calm,-,N/A,,Overcast,0,2013-10-18 02:53:00
11:53 PM,71.1,66.0,84,29.92,10.0,Calm,Calm,-,N/A,,Overcast,0,2013-10-18 03:53:00